[[{"header":{"parameterUnit":"m.s-1","parameterCategory":1,"la1":30.2991,"la2":30.254,"lo1":-89.0895,"lo2":-89.0444,"dy":0.0017,"dx":0.0017,"nx":28,"ny":28,"refTime":"2025-12-16T03:00:00:Z","depth":0,"parameterNumber":2,"parameterNumberName":"U-component_of_WINDS"},"data":[0,0,0,0,0,0,0,0,0,0,0,0,0,0,0,0,0,0,0,0,0,0,0,0,0,0,0,0,0,0,0,0,0,0,0,0,0,0,0,0,0,0,0,0,0,0,0,0,0,0,0,0,0,0,0,0,0,0,-3.0378,-3.0379,0,-3.0436,-3.0437,-3.0437,-3.0345,-3.0342,-3.0339,-3.0336,-3.0395,-3.04,-3.0404,0,0,0,0,0,0,0,0,0,0,0,0,0,-3.0189,-3.0193,-3.0378,-3.0379,-3.038,-3.0436,-3.0437,-3.0437,-3.0346,-3.0342,-3.0338,-3.0335,-3.0394,-3.0399,-3.0405,0,0,0,0,0,0,0,0,0,0,0,0,0,-3.0261,-3.0194,-3.0378,-3.0341,-3.0338,-3.0436,-3.0437,-3.0438,-3.0347,-3.0342,-3.0337,-3.0333,-3.0392,-3.0399,-3.0405,-3.0542,0,0,-3.0426,-3.0429,0,0,0,0,0,0,0,0,-3.0257,-3.0268,-3.0346,-3.0344,-3.0341,-3.0379,-3.0391,-3.0473,-3.0348,-3.0344,-3.0336,-3.033,-3.0394,-3.04,-3.0421,-3.0545,-3.0548,-3.0427,-3.0431,-3.0434,-3.0436,0,0,0,0,0,0,0,-3.0252,-3.0265,-3.0401,-3.0347,-3.0344,-3.0321,-3.0326,-3.0406,-3.0395,-3.0343,-3.0337,-3.0345,-3.0391,-3.0415,-3.0422,-3.0548,-3.0427,-3.0433,-3.0437,-3.0439,-3.0785,-3.079,0,0,0,0,0,0,-3.0252,-3.0262,-3.0399,-3.0403,-3.0286,-3.0328,-3.0334,-3.0371,-3.0393,-3.0392,-3.0349,-3.034,-3.0406,-3.0414,-3.0424,-3.0583,-3.0434,-3.044,-3.0444,-3.078,-3.0786,-3.0792,0,0,0,0,0,0,-3.0248,-3.0265,-3.0397,-3.033,-3.0345,-3.0337,-3.0379,-3.0375,-3.0398,-3.0397,-3.0395,-3.0375,-3.0402,-3.0414,-3.0513,-3.0584,-3.0443,-3.0449,-3.0774,-3.0782,-3.0789,-3.0905,0,0,0,0,0,0,-3.0243,-3.0264,-3.0316,-3.0332,-3.0349,-3.0486,-3.0384,-3.0379,-3.041,-3.04,-3.0421,-3.0421,-3.0399,-3.0503,-3.052,-3.0591,-3.0455,-3.0767,-3.0777,-3.0786,-3.0895,-3.0916,-3.0934,0,0,0,0,0,-3.0237,-3.0348,-3.032,-3.0337,-3.0415,-3.049,-3.05,-3.0473,-3.0416,-3.0468,-3.0467,-3.042,-3.0574,-3.0514,-3.0532,-3.0606,-3.0763,-3.0775,-3.0786,-3.0886,-3.0912,-3.0934,0,0,0,0,0,0,-3.0341,-3.0349,-3.0318,-3.0438,-3.0464,-3.0474,-3.0539,-3.0502,-3.0545,-3.0533,-3.0498,-3.0504,-3.061,-3.0618,-3.0551,-3.0739,-3.0659,-3.0674,-3.0729,-3.0754,-3.0773,-3.0768,-3.046,0,0,0,0,0,-3.0378,-3.0439,-3.0442,-3.0547,-3.0562,-3.0549,-3.0581,-3.0558,-3.0584,-3.0594,-3.0601,-3.0628,-3.0682,-3.0718,-3.0769,-3.0896,-3.0899,-3.0956,-3.0976,-3.0992,-3.1005,-3.1071,-3.1096,-3.0829,-3.0829,-3.0829,0,0,-3.0455,-3.0467,-3.0507,-3.0569,-3.0586,-3.0649,-3.0559,-3.063,-3.0676,-3.0605,-3.0698,-3.0704,-3.0732,-3.0845,-3.0895,-3.0855,-3.1079,-3.1006,-3.1019,-3.1024,-3.1085,-3.1111,-3.1133,-3.0837,-3.0836,-3.0834,0,0,-3.0626,-3.0643,-3.0731,-3.075,-3.0777,-3.0767,-3.0789,-3.0805,-3.0806,-3.0899,-3.0846,-3.0901,-3.0996,-3.1017,-3.104,-3.1218,-3.1175,-3.1236,-3.1337,-3.1402,-3.1423,-3.1441,-3.1503,-3.1526,-3.1249,-3.125,-3.125,0,-3.0719,-3.0812,-3.0781,-3.0855,-3.0883,-3.0821,-3.0909,-3.093,-3.0973,-3.0993,-3.0948,-3.1064,-3.1078,-3.1195,-3.1238,-3.126,-3.1282,-3.1233,-3.1422,-3.144,-3.1457,-3.1516,-3.1539,-3.1257,-3.1256,-3.1255,-3.1255,0,-3.0922,-3.0988,-3.1056,-3.1097,-3.1133,-3.1214,-3.1195,-3.1235,-3.1209,-3.1204,-3.1298,-3.1313,-3.1364,-3.139,-3.1366,-3.1503,-3.1477,-3.1428,-3.1346,-3.149,-3.1544,-3.1567,-3.1267,-3.1264,-3.1262,-3.126,0,0,-3.1162,-3.1184,-3.121,-3.1227,-3.1252,-3.1302,-3.138,-3.1429,-3.1463,-3.1495,-3.1558,-3.1639,-3.1593,-3.162,-3.1597,-3.1654,-3.1792,-3.1597,-3.1597,-3.1631,-3.1942,-3.1977,-3.2004,-3.1764,-3.1768,-3.1772,-3.1939,0,-3.1331,-3.1465,-3.1439,-3.157,-3.1628,-3.157,-3.1637,-3.166,-3.1657,-3.1706,-3.1703,-3.176,-3.1696,-3.1711,-3.1765,-3.1764,-3.1854,-3.1752,-3.1822,-3.1825,-3.1815,-3.2033,-3.2071,-3.2228,-3.196,-3.1963,-3.1966,0,-3.1547,-3.1585,-3.1722,-3.1735,-3.1759,-3.1821,-3.1862,-3.1911,-3.1935,-3.1928,-3.1957,-3.1924,-3.2,-3.1919,-3.2022,-3.1954,-3.1981,-3.1984,-3.199,-3.1994,-3.1903,-3.2041,-3.2277,-3.23,-3.2,-3.1997,-3.1995,0,-3.1706,-3.1791,-3.1883,-3.19,-3.192,-3.1963,-3.1974,-3.1993,-3.2023,-3.206,-3.208,-3.2126,-3.215,-3.2186,-3.2165,-3.2108,-3.2272,-3.219,-3.2268,-3.2269,-3.2304,-3.2302,-3.2547,-3.2325,-3.2325,-3.2324,-3.2324,0,-3.1897,-3.1982,-3.1954,-3.2011,-3.2104,-3.2073,-3.2166,-3.2169,-3.2187,-3.2242,-3.2195,-3.2248,-3.2218,-3.2269,-3.2253,-3.234,-3.2352,-3.2348,-3.2343,-3.2352,-3.2352,-3.2368,-3.2356,-3.233,-3.2329,-3.2328,-3.2327,0,-3.2089,-3.2074,-3.217,-3.218,-3.2185,-3.2253,-3.2261,-3.2313,-3.2306,-3.2377,-3.2392,-3.2381,-3.2438,-3.2421,-3.2483,-3.2472,-3.2582,-3.2563,-3.2574,-3.2568,-3.2647,-3.2639,-3.2909,-3.2942,-3.2701,-3.2704,-3.2705,0,-3.2211,-3.2275,-3.2292,-3.2325,-3.2338,-3.2393,-3.2424,-3.2396,-3.243,-3.2461,-3.2509,-3.2562,-3.2602,-3.2695,-3.2693,-3.2739,-3.272,-3.2812,-3.2727,-3.2733,-3.2719,-3.2715,-3.272,-3.2828,-3.2831,-3.2833,-3.2835,0,-3.2429,-3.2418,-3.2464,-3.2508,-3.2545,-3.2578,-3.2607,-3.2637,-3.261,-3.2651,-3.2708,-3.2739,-3.2801,-3.2854,-3.2896,-3.2905,-3.2866,-3.2862,-3.2882,-3.2891,-3.2893,-3.2891,-3.2618,-3.2856,-3.2854,-3.2852,-3.2851,-3.285,-3.2589,-3.2642,-3.2661,-3.2713,-3.2732,-3.2759,-3.2808,-3.2807,-3.2854,-3.2902,-3.2883,-3.2948,-3.2968,-3.3021,-3.3036,-3.3086,-3.3051,-3.3081,-3.3088,-3.3095,-3.3104,-3.2887,-3.3094,-3.3093,-3.3093,-3.3092,-3.3092,0,-3.2802,-3.2811,-3.286,-3.2901,-3.2941,-3.2901,-3.293,-3.2966,-3.3024,-3.3047,-3.3087,-3.3152,-3.3202,-3.3203,-3.325,-3.329,-3.3272,-3.3303,-3.3298,-3.3301,-3.3134,-3.3111,-3.3315,-3.3315,-3.3315,-3.3315,-3.3315,-3.3315,-3.2918,-3.3005,-3.2996,-3.3092,-3.31,-3.3163,-3.3183,-3.3208,-3.3225,-3.33,-3.3341,-3.3341,-3.3355,-3.3401,-3.3445,-3.3444,-3.3462,-3.3499,-3.3491,-3.3335,-3.3313,-3.3292,-3.327,-3.3504,-3.3504,-3.3653,-3.3655,-3.3656]},{"header":{"parameterUnit":"m.s-1","parameterCategory":1,"la1":30.2991,"la2":30.254,"lo1":-89.0895,"lo2":-89.0444,"dy":0.0017,"dx":0.0017,"nx":28,"ny":28,"refTime":"2025-12-16T03:00:00:Z","depth":0,"parameterNumber":3,"parameterNumberName":"V-component_of_WINDS"},"data":[0,0,0,0,0,0,0,0,0,0,0,0,0,0,0,0,0,0,0,0,0,0,0,0,0,0,0,0,0,0,0,0,0,0,0,0,0,0,0,0,0,0,0,0,0,0,0,0,0,0,0,0,0,0,0,0,0,0,-1.5703,-1.5703,0,-1.5725,-1.5726,-1.5726,-1.5732,-1.5732,-1.5731,-1.5731,-1.5753,-1.5754,-1.5755,0,0,0,0,0,0,0,0,0,0,0,0,0,-1.5662,-1.5663,-1.5703,-1.5703,-1.5703,-1.5725,-1.5726,-1.5726,-1.5732,-1.5732,-1.5731,-1.5731,-1.5753,-1.5754,-1.5755,0,0,0,0,0,0,0,0,0,0,0,0,0,-1.5682,-1.5663,-1.5703,-1.5709,-1.571,-1.5725,-1.5726,-1.5726,-1.5732,-1.5732,-1.5731,-1.5731,-1.5753,-1.5754,-1.5755,-1.5766,0,0,-1.5758,-1.5759,0,0,0,0,0,0,0,0,-1.568,-1.5683,-1.5708,-1.5708,-1.5709,-1.5726,-1.5719,-1.5739,-1.5732,-1.5723,-1.5731,-1.5731,-1.5744,-1.5746,-1.5751,-1.5767,-1.5768,-1.5758,-1.5759,-1.576,-1.576,0,0,0,0,0,0,0,-1.5679,-1.5682,-1.5712,-1.5708,-1.5709,-1.571,-1.5712,-1.5723,-1.5735,-1.5724,-1.5725,-1.5727,-1.5745,-1.575,-1.5751,-1.5768,-1.5758,-1.5759,-1.576,-1.576,-1.5792,-1.5792,0,0,0,0,0,0,-1.5677,-1.5681,-1.5711,-1.5712,-1.5694,-1.5711,-1.5713,-1.5721,-1.5735,-1.5737,-1.5727,-1.5727,-1.5748,-1.575,-1.5752,-1.5764,-1.5759,-1.576,-1.5761,-1.5792,-1.5792,-1.5792,0,0,0,0,0,0,-1.5676,-1.568,-1.571,-1.5697,-1.5701,-1.5712,-1.5719,-1.5721,-1.5726,-1.5737,-1.5739,-1.5731,-1.5748,-1.5751,-1.5762,-1.5765,-1.5761,-1.5762,-1.5792,-1.5792,-1.5792,-1.579,0,0,0,0,0,0,-1.5675,-1.5679,-1.5684,-1.5697,-1.5701,-1.572,-1.572,-1.5722,-1.5728,-1.5728,-1.5741,-1.5742,-1.5748,-1.576,-1.5763,-1.5767,-1.5763,-1.5791,-1.5792,-1.5792,-1.579,-1.579,-1.579,0,0,0,0,0,-1.5673,-1.5683,-1.5684,-1.5688,-1.5708,-1.5721,-1.5723,-1.573,-1.5728,-1.5733,-1.5739,-1.5742,-1.5764,-1.5761,-1.5765,-1.5769,-1.5791,-1.5792,-1.5792,-1.5789,-1.579,-1.579,0,0,0,0,0,0,-1.567,-1.5685,-1.5687,-1.5701,-1.5709,-1.5722,-1.5728,-1.573,-1.5739,-1.5739,-1.5746,-1.5749,-1.5759,-1.5765,-1.5762,-1.5779,-1.5778,-1.5779,-1.5775,-1.5775,-1.5775,-1.5774,-1.5764,0,0,0,0,0,-1.5671,-1.5681,-1.5693,-1.5704,-1.5708,-1.5717,-1.5723,-1.5727,-1.5736,-1.574,-1.5747,-1.5756,-1.5764,-1.577,-1.5779,-1.579,-1.5792,-1.5794,-1.5795,-1.5795,-1.5796,-1.5801,-1.5801,-1.5794,-1.5794,-1.5794,0,0,-1.5674,-1.5682,-1.5688,-1.5703,-1.5711,-1.5719,-1.572,-1.573,-1.5736,-1.5741,-1.5752,-1.5758,-1.5767,-1.5778,-1.5784,-1.5783,-1.5798,-1.5795,-1.5796,-1.5796,-1.5801,-1.5802,-1.5802,-1.5794,-1.5794,-1.5794,0,0,-1.5682,-1.569,-1.57,-1.5706,-1.5717,-1.5723,-1.5725,-1.5736,-1.574,-1.5751,-1.5755,-1.5762,-1.5777,-1.5783,-1.5789,-1.5797,-1.5799,-1.5799,-1.5801,-1.5806,-1.5806,-1.5807,-1.5809,-1.581,-1.58,-1.58,-1.58,0,-1.5683,-1.5697,-1.5704,-1.5713,-1.5719,-1.5723,-1.5732,-1.5738,-1.5751,-1.5755,-1.5755,-1.5773,-1.578,-1.5791,-1.5793,-1.5798,-1.5799,-1.5798,-1.5806,-1.5807,-1.5807,-1.5809,-1.581,-1.58,-1.58,-1.58,-1.58,0,-1.5698,-1.5707,-1.5713,-1.5725,-1.5732,-1.5741,-1.5748,-1.5753,-1.5756,-1.5762,-1.5772,-1.578,-1.579,-1.5793,-1.5796,-1.5805,-1.5804,-1.5805,-1.5804,-1.5808,-1.581,-1.5811,-1.58,-1.58,-1.58,-1.58,0,0,-1.5706,-1.572,-1.5722,-1.5727,-1.5738,-1.5745,-1.5754,-1.5763,-1.5767,-1.5776,-1.5782,-1.5794,-1.5794,-1.58,-1.5804,-1.5808,-1.5812,-1.5808,-1.5808,-1.5808,-1.5821,-1.582,-1.5821,-1.5814,-1.5814,-1.5814,-1.582,0,-1.5715,-1.5731,-1.5736,-1.5748,-1.5756,-1.576,-1.5767,-1.5774,-1.5778,-1.5785,-1.579,-1.5798,-1.5798,-1.5801,-1.5806,-1.5811,-1.5815,-1.5811,-1.5819,-1.5819,-1.5816,-1.5822,-1.5822,-1.5827,-1.5821,-1.5821,-1.5821,0,-1.5728,-1.5736,-1.5749,-1.5758,-1.5761,-1.5768,-1.5776,-1.5783,-1.579,-1.5793,-1.5799,-1.5802,-1.5809,-1.5808,-1.5818,-1.5814,-1.5818,-1.5821,-1.5821,-1.5822,-1.582,-1.5823,-1.5829,-1.5829,-1.5822,-1.5822,-1.5822,0,-1.5731,-1.5745,-1.5755,-1.5759,-1.5769,-1.5773,-1.5778,-1.5785,-1.579,-1.5797,-1.58,-1.5808,-1.5812,-1.5817,-1.5822,-1.582,-1.5831,-1.583,-1.5833,-1.5833,-1.5835,-1.5835,-1.5841,-1.5838,-1.5838,-1.5838,-1.5838,0,-1.5741,-1.5748,-1.5756,-1.5762,-1.577,-1.5775,-1.5783,-1.5788,-1.5794,-1.58,-1.5803,-1.5808,-1.5814,-1.582,-1.5824,-1.5831,-1.5833,-1.5834,-1.5835,-1.5834,-1.5834,-1.5837,-1.5836,-1.5838,-1.5838,-1.5838,-1.5838,0,-1.5746,-1.5752,-1.5762,-1.5771,-1.5773,-1.5778,-1.5786,-1.5791,-1.5795,-1.5802,-1.5804,-1.5811,-1.5817,-1.5822,-1.5831,-1.5834,-1.5841,-1.5842,-1.5838,-1.5839,-1.5841,-1.5841,-1.585,-1.5851,-1.5846,-1.5847,-1.5847,0,-1.5751,-1.5757,-1.5766,-1.5771,-1.5775,-1.5782,-1.5787,-1.5791,-1.5796,-1.5804,-1.5808,-1.5815,-1.5821,-1.5831,-1.5836,-1.5843,-1.5844,-1.5846,-1.5845,-1.5843,-1.5843,-1.5842,-1.5843,-1.5847,-1.5847,-1.5847,-1.5847,0,-1.576,-1.5762,-1.5769,-1.5776,-1.5782,-1.5788,-1.5794,-1.5797,-1.5803,-1.5807,-1.5814,-1.5819,-1.5827,-1.5834,-1.5841,-1.5844,-1.5846,-1.5847,-1.5848,-1.5847,-1.5844,-1.5845,-1.5839,-1.5847,-1.5847,-1.5847,-1.5847,-1.5847,-1.5765,-1.577,-1.5777,-1.5784,-1.5789,-1.5794,-1.5799,-1.5803,-1.5809,-1.5817,-1.5819,-1.5826,-1.5831,-1.5841,-1.5844,-1.5849,-1.5849,-1.5851,-1.5851,-1.5851,-1.5851,-1.5843,-1.585,-1.585,-1.585,-1.585,-1.585,0,-1.5773,-1.5777,-1.5784,-1.5792,-1.5797,-1.5798,-1.5804,-1.5808,-1.5814,-1.582,-1.5825,-1.5832,-1.5838,-1.5844,-1.585,-1.5852,-1.5853,-1.5854,-1.5854,-1.5854,-1.5851,-1.5849,-1.5853,-1.5853,-1.5853,-1.5853,-1.5853,-1.5853,-1.5778,-1.5786,-1.5789,-1.5798,-1.5802,-1.5809,-1.5813,-1.5817,-1.5821,-1.5829,-1.5834,-1.5837,-1.5842,-1.5848,-1.5853,-1.5855,-1.5856,-1.5857,-1.5858,-1.5855,-1.5855,-1.5854,-1.5853,-1.5857,-1.5857,-1.5861,-1.5861,-1.5861]}]]